Regional Weather Roundup
Issued by NWS Charleston, WV

Home | Current Version | Previous Version | Graphics & Text | Print | Product List | Glossary On
Versions: 1 2 3 4 5 6 7 8 9 10 11 12 13 14 15 16 17 18 19 20 21 22 23 24 25 26 27 28 29 30 31 32 33 34 35 36 37 38 39 40 41 42 43 44 45 46 47 48 49 50
000
ASUS41 KRLX 140110
RWRRLX
West Virginia Regional Weather Roundup
National Weather Service Charleston WV
800 PM EST SAT FEB 13 2016

Note: "fair" indicates few or no clouds below 12,000 feet with no
significant weather and/or obstructions to visibility.

WVZ003-140200-
Northern Panhandle of West Virginia

CITY           SKY/WX    TMP DP  RH WIND       PRES   REMARKS
WHEELING         N/A      9  -4  55 W7        30.42S WCI  -2
$$

WVZ009-140200-
Northwest West Virginia

CITY           SKY/WX    TMP DP  RH WIND       PRES   REMARKS
PARKERSBURG      N/A     11  -3  53 W6        30.51F WCI   1
$$

WVZ006-140200-
Western West Virginia

CITY           SKY/WX    TMP DP  RH WIND       PRES   REMARKS
HUNTINGTON       N/A     15  -3  44 N5        30.50S WCI   8
$$

WVZ015-140200-
West Central West Virginia

CITY           SKY/WX    TMP DP  RH WIND       PRES   REMARKS
CHARLESTON       N/A     13  -4  46 N7        30.48R WCI   3
$$

WVZ022-031-140200-
North Central West Virginia

CITY           SKY/WX    TMP DP  RH WIND       PRES   REMARKS
CLARKSBURG       N/A     12  -5  46 NW3       30.44R
MORGANTOWN     NOT AVBL
$$

WVZ025-035-042-045-140200-
Southern West Virginia

CITY           SKY/WX    TMP DP  RH WIND       PRES   REMARKS
BECKLEY          N/A      8  -6  52 NW6       30.32R WCI  -2
LOGAN            N/A     14  -6  41 CALM      30.41S
BLUEFIELD        N/A      7  -4  60 W7        30.29R WCI  -5
LEWISBURG        N/A     12  -6  44 CALM      30.33R
$$

WVZ047-140200-
Northern Mountains of West Virginia

CITY           SKY/WX    TMP DP  RH WIND       PRES   REMARKS
ELKINS         MOCLDY     7  -9  48 VRB6      30.36R WCI  -3
$$

WVZ052-140200-
Eastern Panhandle of West Virginia

CITY           SKY/WX    TMP DP  RH WIND       PRES   REMARKS
MARTINSBURG    CLOUDY    13  -8  39 NW13G25   30.41R WCI  -2
PETERSBURG       N/A     13  -5  43 CALM      30.43R
$$



USA.gov is the U.S. government's official web portal to all federal, state and local government web resources and services.